Location: Bh?mavarapp?du
(16.7041°N, 80.6518°E)
Time: 07:37:48
(UTC+00:00)

Cosmos 2322 - Pass Details

Date: 21 April 2021
Orbit: 843 x 852 km, 71.0° (Epoch: 06 May)

Event Time Altitude Azimuth Distance (km) Brightness Sun altitude
Rises 14:30:45 0° 348° (NNW) 3,391 7.3 -22.9°
Reaches altitude 10° 14:33:13 10° 352° (N) 2,456 6.5 -23.5°
Maximum altitude 14:38:47 62° 73° (ENE) 940 3.6 -24.7°
Enters shadow 14:39:01 62° 86° (E) 945 3.6 -24.7°
